User: anonymous   Login
Location: *
(43.9900°N, 3.4811°E)
Time: 10:42:00
(UTC+00:00)
Language:

Okean 2 Rocket - Orbit

View from above orbital plane
View from above orbital plane
View from above satellite
View from above satellite

Ground track
Ground track

The orbit data is extracted from the following two-line orbital elements,

1 20511U 90018B   19286.94889205 +.00000060 +00000-0 +48944-5 0  9998
2 20511 082.5227 243.6523 0016718 205.1514 213.0200 14.80021937576509
Epoch (UTC): 13 October 2019 22:46:24
Eccentricity: 0.0016718
inclination: 82.5227°
perigee height: 617 km
apogee height: 641 km
right ascension of ascending node: 243.6523°
argument of perigee: 205.1514°
revolutions per day: 14.80021937
mean anomaly at epoch: 213.0200°
orbit number at epoch: 57650

The dashed part of the orbit path shows where the satellite is in the earth's shadow,  

DLR